Delta Virtual Airport Information Service

New York LaGuardia Airport

ICAO: KLGA Country: United States
Latitude: 40.7772 Longitude: -73.8726
Latest Arrival : DAL1038 (1A) (KDTW-KLGA) Latest Departure : WJA1207 (2) (KLGA-CYYZ)


WX CaptureLIVE
Data provided by noaa.gov | Fetched at 17:40:18

METAR : KLGA 172051Z 35007KT 10SM FEW060 BKN110 27/12 A2992 RMK AO2 SLP133 T02670117 58018

TAF : KLGA 172051Z 35007KT 10SM FEW060 BKN110 27/12 A2992 RMK AO2 SLP133 T02670117 58018


Runway Data for KLGA
Data provided by openaviationdata.com

Runway ID Mag Var Hdg Length Elevation Surface ILS Freq ILS Id ILS Slope
4 -13 45° 7000 ft 22 ft Asphalt 110.5 ILGA 3
13 -13 135° 6994 ft 22 ft Asphalt 108.5 IGDI 3
22 -13 225° 7000 ft 22 ft Asphalt 110.5 IURD 3
31 -13 315° 6994 ft 22 ft Asphalt 108.5 IPZV 0

New York LaGuardia Airport, United States
Use only for reference purposes



Not for navigational purposes.